Change the Weather History Date:

Thursday, October 11, 2012

  Actual Average Record
Temperature  
Mean Temperature 75 °F -  
Max Temperature 86 °F 84 °F 92 °F (1959)
Min Temperature 66 °F 64 °F 50 °F (1971)
Cooling Degree Days 10    
Growing Degree Days 25 (Base 50)    
Moisture  
Dew Point 64 °F    
Average Humidity 76    
Maximum Humidity 93    
Minimum Humidity 48    
Precipitation  
Precipitation 0.00 in - - ()
Sea Level Pressure  
Sea Level Pressure 30.16 in    
Wind  
Wind Speed 6 mph (NE)    
Max Wind Speed 10 mph    
Max Gust Speed -    
Visibility 9 miles    
Events      
Averages and records for this station are not official NWS values.
T = Trace of Precipitation, MM = Missing Value Source: NWS Daily Summary

Daily Weather History Graph

Daily Weather History Graph

Search for Another Location

Airport or City:

Trip Planner

Search our weather history database for the weather conditions in past years. The results will help you decide how hot, cold, wet, or windy it might be!

Date:

Astronomy

Oct. 11, 2012 Rise Set
Actual Time 7:26 AM EDT 7:01 PM EDT
Civil Twilight 7:02 AM EDT 7:24 PM EDT
Nautical Twilight 6:34 AM EDT 7:52 PM EDT
Astronomical Twilight 6:07 AM EDT 8:19 PM EDT
Moon 3:22 AM EDT (10/11) 4:20 PM EDT (10/11)
Length of Visible Light 12h 22m
Length of Day
11h 34m
Waning Crescent, 18% of the Moon is Illuminated
Oct 11
Waning Crescent
Oct 15
New
Oct 21
First Quarter
Oct 29
Full
Nov 6
Last Quarter

Hourly Weather History & Observations

Time (EDT) Temp. Heat Index Dew Point Humidity Pressure Visibility Wind Dir Wind Speed Gust Speed Precip Events Conditions
12:53 AM 66.9 °F - 64.0 °F 90% 30.15 in 9.0 mi NE 3.5 mph - N/A   Clear
1:53 AM 68.0 °F - 64.9 °F 90% 30.14 in 8.0 mi NE 3.5 mph - N/A   Clear
2:53 AM 66.9 °F - 64.9 °F 93% 30.12 in 7.0 mi NE 3.5 mph - N/A   Clear
3:53 AM 66.9 °F - 64.9 °F 93% 30.12 in 7.0 mi NE 3.5 mph - N/A   Clear
4:53 AM 66.9 °F - 64.9 °F 93% 30.12 in 7.0 mi NE 3.5 mph - N/A   Clear
5:53 AM 66.0 °F - 64.0 °F 93% 30.14 in 7.0 mi NE 3.5 mph - N/A   Clear
6:53 AM 66.9 °F - 64.0 °F 90% 30.14 in 7.0 mi NNE 5.8 mph - N/A   Clear
7:53 AM 66.9 °F - 64.9 °F 93% 30.17 in 5.0 mi North 4.6 mph - N/A   Clear
8:53 AM 70.0 °F - 66.0 °F 87% 30.17 in 6.0 mi NNE 5.8 mph - N/A   Clear
9:53 AM 73.9 °F - 66.9 °F 79% 30.19 in 10.0 mi North 8.1 mph - N/A   Clear
10:53 AM 79.0 °F - 64.9 °F 62% 30.20 in 10.0 mi NNE 10.4 mph - N/A   Clear
11:53 AM 80.1 °F 81.7 °F 64.0 °F 58% 30.20 in 10.0 mi NE 9.2 mph - N/A   Scattered Clouds
12:53 PM 81.0 °F 82.5 °F 64.0 °F 56% 30.19 in 10.0 mi ENE 8.1 mph - N/A   Partly Cloudy
1:53 PM 82.9 °F 84.4 °F 64.0 °F 53% 30.17 in 10.0 mi East 10.4 mph - N/A   Scattered Clouds
2:53 PM 84.0 °F 85.4 °F 64.0 °F 51% 30.15 in 10.0 mi East 9.2 mph - N/A   Scattered Clouds
3:53 PM 84.9 °F 85.9 °F 63.0 °F 48% 30.14 in 10.0 mi NNE 6.9 mph - N/A   Partly Cloudy
4:53 PM 82.9 °F 83.7 °F 62.1 °F 49% 30.15 in 10.0 mi East 10.4 mph - N/A   Scattered Clouds
7:53 PM 73.9 °F - 64.0 °F 71% 30.18 in 10.0 mi ENE 10.4 mph - N/A   Clear
9:53 PM 70.0 °F - 63.0 °F 78% 30.20 in 10.0 mi NE 6.9 mph - N/A   Clear
11:53 PM 69.1 °F - 64.0 °F 84% 30.20 in 10.0 mi NNE 8.1 mph - N/A   Clear